Weather History for Fort Smith, AR

Change the Weather History Date:

Tuesday, July 23, 2013

  Actual Average Record
Temperature  
Mean Temperature 87 °F 83 °F  
Max Temperature 100 °F 94 °F 107 °F (2011)
Min Temperature 73 °F 72 °F 54 °F (1947)
Cooling Degree Days 22 18  
Month to date cooling degree days 411 394  
Year to date cooling degree days 1138 1023  
Since 1 June cooling degree days 864 779  
Growing Degree Days 36 (Base 50)    
Moisture  
Dew Point 71 °F    
Average Humidity 66    
Maximum Humidity 93    
Minimum Humidity 38    
Precipitation  
Precipitation 2.29 in 0.10 in 5.73 in (1960)
Month to date precipitation 2.67 2.48  
Year to date precipitation 29.75 25.95  
Sea Level Pressure  
Sea Level Pressure 29.87 in    
Wind  
Wind Speed 8 mph (ESE)    
Max Wind Speed 29 mph    
Max Gust Speed 37 mph    
Visibility 8 miles    
Events Rain , Thunderstorm    
T = Trace of Precipitation, MM = Missing Value Source: NWS Daily Summary

Daily Weather History Graph

Daily Weather History Graph

Search for Another Location

Airport:

Trip Planner

Search our weather history database for the weather conditions in past years. The results will help you decide how hot, cold, wet, or windy it might be!

Date:

Astronomy

Jul. 23, 2013 Rise Set
Actual Time 6:19 AM CDT 8:27 PM CDT
Civil Twilight 5:51 AM CDT 8:56 PM CDT
Nautical Twilight 5:16 AM CDT 9:31 PM CDT
Astronomical Twilight 4:38 AM CDT 10:08 PM CDT
Moon 9:02 PM CDT (7/23) 7:24 AM CDT (7/23)
Length of Visible Light 15h 05m
Length of Day
14h 08m
Full, 99% of the Moon is Illuminated
Jul 23
Full
Jul 29
Last Quarter
Aug 6
New
Aug 14
First Quarter
Aug 20
Full

Hourly Weather History & Observations

Time (CDT) Temp. Heat Index Dew Point Humidity Pressure Visibility Wind Dir Wind Speed Gust Speed Precip Events Conditions
12:53 AM 75.9 °F - 70.0 °F 82% 29.89 in 10.0 mi East 3.5 mph - N/A   Clear
1:53 AM 77.0 °F - 71.1 °F 82% 29.88 in 10.0 mi ESE 3.5 mph - N/A   Clear
2:53 AM 75.9 °F - 70.0 °F 82% 29.88 in 10.0 mi ENE 3.5 mph - N/A   Clear
3:53 AM 75.9 °F - 71.1 °F 85% 29.87 in 10.0 mi East 3.5 mph - N/A   Clear
4:53 AM 75.0 °F - 71.1 °F 87% 29.86 in 10.0 mi East 3.5 mph - N/A   Clear
5:53 AM 75.0 °F - 71.1 °F 87% 29.87 in 10.0 mi NE 4.6 mph - N/A   Clear
6:53 AM 75.0 °F - 72.0 °F 90% 29.89 in 10.0 mi Calm Calm - N/A   Clear
7:53 AM 78.1 °F - 72.0 °F 81% 29.90 in 10.0 mi Calm Calm - N/A   Partly Cloudy
8:53 AM 84.9 °F 91.4 °F 73.0 °F 67% 29.90 in 10.0 mi Calm Calm - N/A   Clear
9:53 AM 90.0 °F 97.9 °F 73.0 °F 57% 29.90 in 10.0 mi West 11.5 mph - N/A   Clear
10:53 AM 91.9 °F 100.7 °F 73.0 °F 54% 29.91 in 10.0 mi West 10.4 mph - N/A   Clear
11:53 AM 95.0 °F 104.5 °F 73.0 °F 49% 29.88 in 10.0 mi WSW 10.4 mph 17.3 mph N/A   Clear
12:53 PM 97.0 °F 107.7 °F 73.9 °F 47% 29.87 in 10.0 mi Variable 3.5 mph - N/A   Clear
1:53 PM 99.0 °F 109.3 °F 73.0 °F 43% 29.84 in 10.0 mi WNW 9.2 mph - N/A   Clear
2:53 PM 100.0 °F 109.3 °F 72.0 °F 40% 29.82 in 10.0 mi West 11.5 mph - N/A   Clear
3:53 PM 98.1 °F 106.5 °F 71.1 °F 42% 29.79 in 10.0 mi West 4.6 mph - N/A   Scattered Clouds
4:53 PM 98.1 °F 103.0 °F 68.0 °F 37% 29.78 in 10.0 mi SSW 15.0 mph 21.9 mph N/A   Clear
5:53 PM 98.1 °F 103.0 °F 68.0 °F 37% 29.77 in 10.0 mi SW 10.4 mph - N/A   Clear
6:53 PM 93.0 °F 97.9 °F 69.1 °F 45% 29.77 in 10.0 mi SW 12.7 mph - N/A   Clear
7:53 PM 91.0 °F 96.6 °F 70.0 °F 50% 29.77 in 10.0 mi SSW 11.5 mph - N/A   Clear
8:53 PM 87.1 °F 92.0 °F 70.0 °F 57% 29.79 in 10.0 mi East 11.5 mph 16.1 mph N/A   Mostly Cloudy
9:46 PM 75.2 °F - 71.6 °F 89% 29.86 in 4.0 mi ESE 16.1 mph 25.3 mph 0.04 in Rain , Thunderstorm Light Rain
9:53 PM 75.0 °F - 72.0 °F 90% 29.85 in 6.0 mi East 18.4 mph 28.8 mph 0.06 in Rain , Thunderstorm Rain
10:25 PM 75.2 °F - 73.4 °F 94% 29.95 in 2.5 mi North 26.5 mph 36.8 mph 0.04 in Rain , Thunderstorm Thunderstorms and Rain
10:30 PM 73.4 °F - 71.6 °F 94% 29.93 in 0.8 mi East 17.3 mph 36.8 mph 0.24 in Rain , Thunderstorm Heavy Thunderstorms and Rain
10:41 PM 73.4 °F - 71.6 °F 94% 29.93 in 1.0 mi East 13.8 mph 21.9 mph 0.86 in Rain , Thunderstorm Heavy Thunderstorms and Rain
10:50 PM 73.4 °F - 71.6 °F 94% 29.93 in 2.0 mi SE 15.0 mph 21.9 mph 1.04 in Rain , Thunderstorm Heavy Thunderstorms and Rain
10:51 PM 73.0 °F - 72.0 °F 96% 29.91 in 2.5 mi SE 11.5 mph 21.9 mph 1.04 in Rain , Thunderstorm Heavy Thunderstorms and Rain
11:00 PM 73.4 °F - 71.6 °F 94% 29.89 in 2.0 mi SE 16.1 mph 25.3 mph 0.07 in Rain , Thunderstorm Heavy Thunderstorms and Rain
11:10 PM 73.4 °F - 71.6 °F 94% 29.86 in 1.8 mi SE 11.5 mph 23.0 mph 0.28 in Rain , Thunderstorm Heavy Thunderstorms and Rain
11:14 PM 73.4 °F - 71.6 °F 94% 29.87 in 3.0 mi SE 12.7 mph 23.0 mph 0.31 in Rain , Thunderstorm Light Thunderstorms and Rain
11:46 PM 73.4 °F - 71.6 °F 94% 29.93 in 3.0 mi NE 12.7 mph - 0.37 in Rain , Thunderstorm Heavy Thunderstorms and Rain
11:53 PM 73.0 °F - 71.1 °F 93% 29.90 in 2.5 mi NE 17.3 mph - 0.43 in Rain , Thunderstorm Heavy Rain